sanya , China , ASIA

  • Wednesday
    April 24

      Cloudy

      73 °F

      No wind

       

  • Thursday
    April 25

    Sunny  Cloudy

    91 °F  79 °F

    No wind  No wind

        

  • Friday
    April 26

    Cloudy  Overcast

    91 °F  79 °F

    No wind  No wind

        

  • Saturday
    April 27

    Cloudy  Cloudy

    91 °F  81 °F

    No wind  No wind

        

  • Sunday
    April 28

    Sunny  Cloudy

    93 °F  77 °F

    No wind  Southeast

       3~4L 

  • Monday
    April 29

    Cloudy  Cloudy

    88 °F  79 °F

    South  No wind

    3~4L    

  • Tuesday
    April 30

    Cloudy  Light rain

    88 °F  79 °F

    No wind  No wind

        

Date   Weather Temperature Humidity Total_rain Visibility Wind
23:00 Cloudy 75°F 99.4% 0mm 999.9km Southeast  3.5m/s
02:00 Cloudy 74°F 99.9% 0mm 999.9km Southeast  4.3m/s
05:00 Cloudy 74°F 99.5% 0mm 999.9km Southeast  4.6m/s
08:00 Cloudy 79°F 98.9% 0mm 999.9km Southeast  4.9m/s
11:00 Sunny 88°F 90% 0mm 999.9km Southeast  4.6m/s
14:00 Sunny 91°F 87.1% 0mm 999.9km Southeast  4.3m/s
17:00 Sunny 86°F 91.3% 0mm 999.9km Southwest  3.5m/s
20:00 Sunny 77°F 81.6% 0mm 999.9km Southeast  3.3m/s
23:00 Cloudy 80°F 97.1% 0mm 999.9km Southeast  3.3m/s
02:00 Cloudy 79°F 97.9% 0mm 999.9km Southeast  4.3m/s
05:00 Cloudy 79°F 96% 0mm 999.9km Southeast  5.0m/s
08:00 Cloudy 83°F 92.9% 0mm 999.9km Southeast  5.5m/s
11:00 Cloudy 89°F 85.1% 0mm 999.9km Southeast  4.7m/s
14:00 Cloudy 91°F 82.9% 0mm 999.9km Southeast  4.3m/s
17:00 Cloudy 88°F 84.5% 0mm 999.9km Southeast  3.7m/s
20:00 Cloudy 83°F 77% 0mm 999.9km Southeast  2.8m/s
23:00 Overcast 81°F 97.8% 0mm 999.9km Southeast  4.3m/s
02:00 Overcast 80°F 98.2% 0mm 999.9km Southeast  5.0m/s
05:00 Overcast 79°F 98.1% 0mm 999.9km Southeast  5.1m/s
08:00 Overcast 82°F 97.1% 0mm 999.9km Southeast  4.8m/s
11:00 Cloudy 89°F 87.9% 0mm 999.9km Southeast  3.9m/s
14:00 Cloudy 91°F 86.2% 0mm 999.9km Southeast  3.6m/s
17:00 Cloudy 87°F 88.6% 0mm 999.9km Southeast  2.8m/s
20:00 Cloudy 81°F 81.3% 0mm 999.9km Southeast  3.1m/s
23:00 Cloudy 83°F 90.1% 0mm 999.9km Southeast  3.9m/s
02:00 Cloudy 81°F 91.5% 0mm 999.9km Southeast  4.0m/s
05:00 Cloudy 82°F 91.8% 0mm 999.9km Southeast  4.2m/s
08:00 Cloudy 84°F 92% 0mm 999.9km Southeast  4.3m/s
11:00 Sunny 91°F 84.8% 0mm 999.9km Southeast  4.2m/s
14:00 Sunny 93°F 82.1% 0mm 999.9km Southeast  4.3m/s
17:00 Sunny 89°F 85.9% 0mm 999.9km Southeast  4.2m/s
20:00 Sunny 85°F 78% 0mm 999.9km Southeast  3.7m/s
23:00 Cloudy 78°F 99.8% 0mm 999.9km Southeast  3.9m/s
02:00 Cloudy 77°F 99.5% 0mm 999.9km Southeast  4.1m/s
05:00 Cloudy 77°F 98.6% 0mm 999.9km Southeast  4.8m/s
08:00 Cloudy 80°F 93.6% 0mm 999.9km Southeast  4.7m/s
11:00 Cloudy 85°F 88.7% 0mm 999.9km Southeast  4.5m/s
14:00 Cloudy 87°F 87.1% 0mm 999.9km Southeast  4.9m/s
17:00 Cloudy 84°F 83% 0mm 999.9km Southeast  4.2m/s
20:00 Cloudy 80°F 79.6% 0mm 999.9km Southeast  4.0m/s
23:00 Cloudy 79°F 90.6% 0mm 999.9km Southeast  4.5m/s
02:00 Cloudy 79°F 92.3% 0mm 999.9km Southeast  4.5m/s
05:00 Cloudy 79°F 92.4% 0mm 999.9km Southeast  3.6m/s
08:00 Cloudy 83°F 92.1% 0mm 999.9km Southeast  4.9m/s
11:00 Cloudy 85°F 85% 0mm 999.9km Southeast  4.2m/s
14:00 Cloudy 87°F 82.2% 0mm 999.9km Southeast  4.9m/s
17:00 Cloudy 84°F 87.3% 0mm 999.9km Southeast  4.3m/s
20:00 Cloudy 82°F 78.2% 0mm 999.9km Southeast  4.3m/s
23:00 Light rain 81°F 92.9% 2.3mm 999.9km Southeast  3.7m/s
02:00 Light rain 79°F 91.9% 2.3mm 999.9km Southeast  4.4m/s
05:00 Light rain 79°F 90.9% 2.3mm 999.9km Southeast  4.2m/s